Weather Roundup
Issued by NWS Corpus Christi, TX

Home | Current Version | Previous Version | Text Only | Print | Product List | Glossary On
Versions: 1 2 3 4 5 6 7 8 9 10 11 12 13 14 15 16 17 18 19 20 21 22 23 24 25 26 27 28 29 30 31 32 33 34 35 36 37 38 39 40 41 42 43 44 45 46 47 48 49 50
000
ASUS44 KCRP 260010
HRRCRP

SOUTH TEXAS REGIONAL WEATHER ROUNDUP
NATIONAL WEATHER SERVICE CORPUS CHRISTI TX
700 PM CDT THU AUG 25 2016


TXZ229>244-260100-
...CORPUS CHRISTI AREA OBSERVATIONS...

CITY           SKY/WX    TMP DP  RH WIND       PRES   REMARKS
CORPUS CHRISTI MOSUNNY   89  75  63 E17       29.94S HX  99
NAS CORPUS CHR MOSUNNY   87  78  74 SE17      29.95S HX 100
ROCKPORT       SUNNY     87  74  64 SE15      29.95F HX  95
KINGSVILLE NAS MOSUNNY   88  73  61 E16       29.94R HX  95
ALICE          SUNNY     91  70  49 SE15      29.93R HX  96
FALFURRIAS     SUNNY     90  70  51 E9        29.93S HX  95
$$

...VICTORIA AREA OBSERVATIONS...

CITY           SKY/WX    TMP DP  RH WIND       PRES   REMARKS
VICTORIA       MOSUNNY   85  75  72 SE14      29.97S HX  93
BEEVILLE       FAIR      89  77  68 E6        29.95S HX 101
PLEASANTON     SUNNY     89  71  55 E9        29.96S HX  94
SAN ANTONIO    MOSUNNY   86  71  60 E14       29.98S HX  91
$$

...LAREDO AREA OBSERVATIONS...

CITY           SKY/WX    TMP DP  RH WIND       PRES   REMARKS
LAREDO         SUNNY     93  63  36 E10       29.91S HX  94
COTULLA        SUNNY     94  65  38 SE10      29.92F HX  96
DEL RIO        SUNNY     90  64  42 E15       29.92F HX  91
MCALLEN        CLOUDY    91  75  59 E16       29.91S HX 101
HEBBRONVILLE   SUNNY     92  69  46 SE17      29.94S HX  96
$$

...OTHER TEXAS OBSERVATIONS...

CITY           SKY/WX    TMP DP  RH WIND       PRES   REMARKS
BROWNSVILLE    SUNNY     89  72  56 E14       29.95S HX  96
HOUSTON        PTSUNNY   82  77  84 SE7       29.99S HX  90
COL. STATION   CLOUDY    88  74  63 E8        29.98S HX  96
AUSTIN         CLOUDY    89  71  55 SE6       29.96F HX  95
WACO           MOSUNNY   91  71  51 E10       29.97S HX  97
FORT WORTH     PTSUNNY   92  65  40 S8        29.96S HX  94
WICHITA FALLS  MOSUNNY   92  64  39 SE15      29.95S HX  93
LUBBOCK        CLOUDY    81  55  40 SW10      30.03F
EL PASO        PTSUNNY   85  53  33 S9        30.03S
$$

...MARINE OBSERVATIONS...

STATION/POSITION TIME  SKY/WX   TEMP    WIND        PRES    VSBY  WAVE   SWELL
                                AIR SEA DIR/SP/G                  HT/PER HT/PER
                 (UTC)          (F)     (DEG/KT/KT) (MB)    (MI)  (FT/S) (FT/S)
PORT ARANSAS     0000            85 90   90/ 14/ 16 1014.6F
BUOY 90 E PORT A 2350            85 86   50/  8/ 10 1015.1R         2/ 4   2/ 4
BUOY 45 SE BAFFI 2350            86 87  110/ 10/ 12 1014.2R         1/ 6   2/ 6
BUOY 200 E PT IS 2350            86 87   80/ 12/ 12 1013.3R         2/ 4
BUOY 15 E GALVES 2350            86 86  120/ 10/ 12 1015.5R         1/ 5
$$




USA.gov is the U.S. government's official web portal to all federal, state and local government web resources and services.